Time,TemperatureF,DewpointF,PressureIn,WindDirection,WindDirectionDegrees,WindSpeedMPH,WindSpeedGustMPH,Humidity,HourlyPrecipIn,Conditions,Clouds,dailyrainin,SoftwareType,DateUTC
2013-01-24 00:00:00,62.0,-99.9,30.24,South,190,9.0,10.0,-999,-99.99,,,-99.99,,2013-01-24 06:00:00,
2013-01-24 00:33:00,62.0,-99.9,30.24,South,190,9.0,10.0,-999,-99.99,,,-99.99,,2013-01-24 06:33:00,
2013-01-24 00:43:00,62.0,-99.9,30.24,South,190,9.0,10.0,-999,-99.99,,,-99.99,,2013-01-24 06:43:00,
2013-01-24 00:53:00,62.0,-99.9,30.24,South,190,9.0,10.0,-999,-99.99,,,-99.99,,2013-01-24 06:53:00,
2013-01-24 01:00:00,62.0,-99.9,30.24,SSW,194,6.0,7.0,-999,-99.99,,,-99.99,,2013-01-24 07:00:00,
2013-01-24 01:34:00,62.0,-99.9,30.24,SSW,194,6.0,7.0,-999,-99.99,,,-99.99,,2013-01-24 07:34:00,
2013-01-24 01:43:00,62.0,-99.9,30.24,SSW,194,6.0,7.0,-999,-99.99,,,-99.99,,2013-01-24 07:43:00,
2013-01-24 01:53:00,62.0,-99.9,30.24,SSW,194,6.0,7.0,-999,-99.99,,,-99.99,,2013-01-24 07:53:00,
2013-01-24 02:00:00,61.0,-99.9,30.23,SSW,198,6.0,7.0,-999,-99.99,,,-99.99,,2013-01-24 08:00:00,
2013-01-24 02:33:00,61.0,-99.9,30.23,SSW,198,6.0,7.0,-999,-99.99,,,-99.99,,2013-01-24 08:33:00,
2013-01-24 02:43:00,61.0,-99.9,30.23,SSW,198,6.0,7.0,-999,-99.99,,,-99.99,,2013-01-24 08:43:00,
2013-01-24 02:53:00,61.0,-99.9,30.23,SSW,198,6.0,7.0,-999,-99.99,,,-99.99,,2013-01-24 08:53:00,
2013-01-24 03:00:00,61.0,-99.9,30.23,SSW,192,4.0,5.0,-999,-99.99,,,-99.99,,2013-01-24 09:00:00,
2013-01-24 03:34:00,61.0,-99.9,30.23,SSW,192,4.0,5.0,-999,-99.99,,,-99.99,,2013-01-24 09:34:00,
2013-01-24 03:43:00,61.0,-99.9,30.23,SSW,192,4.0,5.0,-999,-99.99,,,-99.99,,2013-01-24 09:43:00,
2013-01-24 03:53:00,61.0,-99.9,30.23,SSW,192,4.0,5.0,-999,-99.99,,,-99.99,,2013-01-24 09:53:00,
2013-01-24 04:00:00,62.0,-99.9,30.24,SSW,213,5.0,6.0,-999,-99.99,,,-99.99,,2013-01-24 10:00:00,
2013-01-24 04:34:00,62.0,-99.9,30.24,SSW,213,5.0,6.0,-999,-99.99,,,-99.99,,2013-01-24 10:34:00,
2013-01-24 04:44:00,62.0,-99.9,30.24,SSW,213,5.0,6.0,-999,-99.99,,,-99.99,,2013-01-24 10:44:00,
2013-01-24 04:53:00,62.0,-99.9,30.24,SSW,213,5.0,6.0,-999,-99.99,,,-99.99,,2013-01-24 10:53:00,
2013-01-24 05:00:00,61.0,-99.9,30.24,SSW,207,6.0,7.0,-999,-99.99,,,-99.99,,2013-01-24 11:00:00,
2013-01-24 05:23:00,61.0,-99.9,30.24,SSW,207,6.0,7.0,-999,-99.99,,,-99.99,,2013-01-24 11:23:00,
2013-01-24 05:34:00,61.0,-99.9,30.24,SSW,207,6.0,7.0,-999,-99.99,,,-99.99,,2013-01-24 11:34:00,
2013-01-24 05:43:00,61.0,-99.9,30.24,SSW,207,6.0,7.0,-999,-99.99,,,-99.99,,2013-01-24 11:43:00,
2013-01-24 05:53:00,61.0,-99.9,30.24,SSW,207,6.0,7.0,-999,-99.99,,,-99.99,,2013-01-24 11:53:00,
2013-01-24 06:00:00,61.0,-99.9,30.23,SSW,202,6.0,7.0,-999,-99.99,,,-99.99,,2013-01-24 12:00:00,
2013-01-24 06:33:00,61.0,-99.9,30.23,SSW,202,6.0,7.0,-999,-99.99,,,-99.99,,2013-01-24 12:33:00,
2013-01-24 06:43:00,61.0,-99.9,30.23,SSW,202,6.0,7.0,-999,-99.99,,,-99.99,,2013-01-24 12:43:00,
2013-01-24 06:53:00,61.0,-99.9,30.23,SSW,202,6.0,7.0,-999,-99.99,,,-99.99,,2013-01-24 12:53:00,
2013-01-24 07:00:00,62.0,-99.9,30.24,SW,216,8.0,10.0,-999,-99.99,,,-99.99,,2013-01-24 13:00:00,
2013-01-24 07:33:00,62.0,-99.9,30.24,SW,216,8.0,10.0,-999,-99.99,,,-99.99,,2013-01-24 13:33:00,
2013-01-24 07:43:00,62.0,-99.9,30.24,SW,216,8.0,10.0,-999,-99.99,,,-99.99,,2013-01-24 13:43:00,
2013-01-24 07:53:00,62.0,-99.9,30.24,SW,216,8.0,10.0,-999,-99.99,,,-99.99,,2013-01-24 13:53:00,
2013-01-24 08:00:00,62.0,-99.9,30.25,SW,225,6.0,7.0,-999,-99.99,,,-99.99,,2013-01-24 14:00:00,
2013-01-24 08:33:00,62.0,-99.9,30.25,SW,225,6.0,7.0,-999,-99.99,,,-99.99,,2013-01-24 14:33:00,
2013-01-24 08:43:00,62.0,-99.9,30.25,SW,225,6.0,7.0,-999,-99.99,,,-99.99,,2013-01-24 14:43:00,
2013-01-24 08:54:00,62.0,-99.9,30.25,SW,225,6.0,7.0,-999,-99.99,,,-99.99,,2013-01-24 14:54:00,
2013-01-24 09:00:00,65.0,-99.9,30.27,SW,218,9.0,11.0,-999,-99.99,,,-99.99,,2013-01-24 15:00:00,
2013-01-24 09:43:00,65.0,-99.9,30.27,SW,218,9.0,11.0,-999,-99.99,,,-99.99,,2013-01-24 15:43:00,
2013-01-24 09:53:00,65.0,-99.9,30.27,SW,218,9.0,11.0,-999,-99.99,,,-99.99,,2013-01-24 15:53:00,
2013-01-24 10:00:00,68.0,-99.9,30.29,SW,216,11.0,15.0,-999,-99.99,,,-99.99,,2013-01-24 16:00:00,
2013-01-24 10:33:00,68.0,-99.9,30.29,SW,216,11.0,15.0,-999,-99.99,,,-99.99,,2013-01-24 16:33:00,
2013-01-24 10:43:00,68.0,-99.9,30.29,SW,216,11.0,15.0,-999,-99.99,,,-99.99,,2013-01-24 16:43:00,
2013-01-24 11:00:00,70.0,-99.9,30.29,SW,219,15.0,19.0,-999,-99.99,,,-99.99,,2013-01-24 17:00:00,
2013-01-24 11:33:00,70.0,-99.9,30.29,SW,219,15.0,19.0,-999,-99.99,,,-99.99,,2013-01-24 17:33:00,
2013-01-24 11:43:00,70.0,-99.9,30.29,SW,219,15.0,19.0,-999,-99.99,,,-99.99,,2013-01-24 17:43:00,
2013-01-24 11:53:00,70.0,-99.9,30.29,SW,219,15.0,19.0,-999,-99.99,,,-99.99,,2013-01-24 17:53:00,
2013-01-24 12:00:00,70.0,-99.9,30.26,SSW,212,17.0,21.0,-999,-99.99,,,-99.99,,2013-01-24 18:00:00,
2013-01-24 12:33:00,70.0,-99.9,30.26,SSW,212,17.0,21.0,-999,-99.99,,,-99.99,,2013-01-24 18:33:00,
2013-01-24 12:43:00,70.0,-99.9,30.26,SSW,212,17.0,21.0,-999,-99.99,,,-99.99,,2013-01-24 18:43:00,
2013-01-24 12:54:00,70.0,-99.9,30.26,SSW,212,17.0,21.0,-999,-99.99,,,-99.99,,2013-01-24 18:54:00,
2013-01-24 13:00:00,68.0,-99.9,30.22,South,185,16.0,19.0,-999,-99.99,,,-99.99,,2013-01-24 19:00:00,
2013-01-24 13:33:00,68.0,-99.9,30.22,South,185,16.0,19.0,-999,-99.99,,,-99.99,,2013-01-24 19:33:00,
2013-01-24 13:42:00,68.0,-99.9,30.22,South,185,16.0,19.0,-999,-99.99,,,-99.99,,2013-01-24 19:42:00,
2013-01-24 13:53:00,68.0,-99.9,30.22,South,185,16.0,19.0,-999,-99.99,,,-99.99,,2013-01-24 19:53:00,
2013-01-24 14:00:00,67.0,-99.9,30.19,South,175,14.0,16.0,-999,-99.99,,,-99.99,,2013-01-24 20:00:00,
2013-01-24 14:33:00,67.0,-99.9,30.19,South,175,14.0,16.0,-999,-99.99,,,-99.99,,2013-01-24 20:33:00,
2013-01-24 14:43:00,67.0,-99.9,30.19,South,175,14.0,16.0,-999,-99.99,,,-99.99,,2013-01-24 20:43:00,
2013-01-24 14:53:00,67.0,-99.9,30.19,South,175,14.0,16.0,-999,-99.99,,,-99.99,,2013-01-24 20:53:00,
2013-01-24 15:00:00,67.0,-99.9,30.16,South,178,14.0,15.0,-999,-99.99,,,-99.99,,2013-01-24 21:00:00,
2013-01-24 15:33:00,67.0,-99.9,30.16,South,178,14.0,15.0,-999,-99.99,,,-99.99,,2013-01-24 21:33:00,
2013-01-24 15:44:00,67.0,-99.9,30.16,South,178,14.0,15.0,-999,-99.99,,,-99.99,,2013-01-24 21:44:00,
2013-01-24 15:53:00,67.0,-99.9,30.16,South,178,14.0,15.0,-999,-99.99,,,-99.99,,2013-01-24 21:53:00,
2013-01-24 16:00:00,68.0,-99.9,30.17,South,177,10.0,12.0,-999,-99.99,,,-99.99,,2013-01-24 22:00:00,
2013-01-24 16:23:00,68.0,-99.9,30.17,South,177,10.0,12.0,-999,-99.99,,,-99.99,,2013-01-24 22:23:00,
2013-01-24 16:33:00,68.0,-99.9,30.17,South,177,10.0,12.0,-999,-99.99,,,-99.99,,2013-01-24 22:33:00,
2013-01-24 16:43:00,68.0,-99.9,30.17,South,177,10.0,12.0,-999,-99.99,,,-99.99,,2013-01-24 22:43:00,
2013-01-24 16:53:00,68.0,-99.9,30.17,South,177,10.0,12.0,-999,-99.99,,,-99.99,,2013-01-24 22:53:00,
2013-01-24 17:00:00,68.0,-99.9,30.17,South,175,11.0,12.0,-999,-99.99,,,-99.99,,2013-01-24 23:00:00,
2013-01-24 17:32:00,68.0,-99.9,30.17,South,175,11.0,12.0,-999,-99.99,,,-99.99,,2013-01-24 23:32:00,
2013-01-24 17:43:00,68.0,-99.9,30.17,South,175,11.0,12.0,-999,-99.99,,,-99.99,,2013-01-24 23:43:00,
2013-01-24 17:52:00,68.0,-99.9,30.17,South,175,11.0,12.0,-999,-99.99,,,-99.99,,2013-01-24 23:52:00,
2013-01-24 18:00:00,65.0,-99.9,30.17,South,173,10.0,11.0,-999,-99.99,,,-99.99,,2013-01-25 00:00:00,
2013-01-24 18:32:00,65.0,-99.9,30.17,South,173,10.0,11.0,-999,-99.99,,,-99.99,,2013-01-25 00:32:00,
2013-01-24 18:42:00,65.0,-99.9,30.17,South,173,10.0,11.0,-999,-99.99,,,-99.99,,2013-01-25 00:42:00,
2013-01-24 18:53:00,65.0,-99.9,30.17,South,173,10.0,11.0,-999,-99.99,,,-99.99,,2013-01-25 00:53:00,
2013-01-24 19:00:00,64.0,-99.9,30.17,South,175,9.0,11.0,-999,-99.99,,,-99.99,,2013-01-25 01:00:00,
2013-01-24 19:32:00,64.0,-99.9,30.17,South,175,9.0,11.0,-999,-99.99,,,-99.99,,2013-01-25 01:32:00,
2013-01-24 19:43:00,64.0,-99.9,30.17,South,175,9.0,11.0,-999,-99.99,,,-99.99,,2013-01-25 01:43:00,
2013-01-24 19:52:00,64.0,-99.9,30.17,South,175,9.0,11.0,-999,-99.99,,,-99.99,,2013-01-25 01:52:00,
2013-01-24 20:00:00,64.0,-99.9,30.18,South,177,10.0,11.0,-999,-99.99,,,-99.99,,2013-01-25 02:00:00,
2013-01-24 20:22:00,64.0,-99.9,30.18,South,177,10.0,11.0,-999,-99.99,,,-99.99,,2013-01-25 02:22:00,
2013-01-24 20:33:00,64.0,-99.9,30.18,South,177,10.0,11.0,-999,-99.99,,,-99.99,,2013-01-25 02:33:00,
2013-01-24 20:43:00,64.0,-99.9,30.18,South,177,10.0,11.0,-999,-99.99,,,-99.99,,2013-01-25 02:43:00,
2013-01-24 20:53:00,64.0,-99.9,30.18,South,177,10.0,11.0,-999,-99.99,,,-99.99,,2013-01-25 02:53:00,
2013-01-24 21:00:00,63.0,-99.9,30.18,SSE,157,9.0,12.0,-999,-99.99,,,-99.99,,2013-01-25 03:00:00,
2013-01-24 21:33:00,63.0,-99.9,30.18,SSE,157,9.0,12.0,-999,-99.99,,,-99.99,,2013-01-25 03:33:00,
2013-01-24 21:42:00,63.0,-99.9,30.18,SSE,157,9.0,12.0,-999,-99.99,,,-99.99,,2013-01-25 03:42:00,
2013-01-24 21:53:00,63.0,-99.9,30.18,SSE,157,9.0,12.0,-999,-99.99,,,-99.99,,2013-01-25 03:53:00,
2013-01-24 22:00:00,63.0,-99.9,30.17,South,170,10.0,11.0,-999,-99.99,,,-99.99,,2013-01-25 04:00:00,
2013-01-24 22:32:00,63.0,-99.9,30.17,South,170,10.0,11.0,-999,-99.99,,,-99.99,,2013-01-25 04:32:00,
2013-01-24 22:42:00,63.0,-99.9,30.17,South,170,10.0,11.0,-999,-99.99,,,-99.99,,2013-01-25 04:42:00,
2013-01-24 22:52:00,63.0,-99.9,30.17,South,170,10.0,11.0,-999,-99.99,,,-99.99,,2013-01-25 04:52:00,
2013-01-24 23:00:00,63.0,-99.9,30.17,South,180,13.0,14.0,-999,-99.99,,,-99.99,,2013-01-25 05:00:00,
2013-01-24 23:22:00,63.0,-99.9,30.17,South,180,13.0,14.0,-999,-99.99,,,-99.99,,2013-01-25 05:22:00,
2013-01-24 23:32:00,63.0,-99.9,30.17,South,180,13.0,14.0,-999,-99.99,,,-99.99,,2013-01-25 05:32:00,
2013-01-24 23:43:00,63.0,-99.9,30.17,South,180,13.0,14.0,-999,-99.99,,,-99.99,,2013-01-25 05:43:00,
2013-01-24 23:52:00,63.0,-99.9,30.17,South,180,13.0,14.0,-999,-99.99,,,-99.99,,2013-01-25 05:52:00,